Theta_e
320 320 320 320 320 320 320 321 321 321 322 322 323 322 322 322 321 322 311 317 319 334 327 318 317 317 317 316 315 315 312 311 313 315 320 326 322 323 324 317 317 325 317 322 331
319 320 320 319 319 319 319 320 320 321 322 322 323 322 322 321 322 315 324 329 335 337 318 314 312 315 314 314 315 313 313 312 315 321 322 325 322 322 319 317 319 322 321 326 329
319 319 319 319 319 318 319 319 320 320 321 322 322 322 321 323 321 315 334 330 337 332 318 316 316 315 312 314 313 313 312 314 318 322 327 325 322 324 319 316 320 319 319 324 327
317 318 318 318 318 318 318 319 319 319 319 321 320 321 322 326 309 323 341 335 338 325 317 315 316 313 311 310 314 310 313 319 324 325 327 325 325 322 323 321 326 325 321 323 324
317 317 317 317 317 317 317 318 318 318 318 319 319 321 324 320 319 334 343 334 322 320 315 314 314 314 311 312 312 311 313 322 326 326 327 328 324 322 324 327 328 328 322 322 324
317 317 316 316 316 317 317 317 317 319 318 319 320 321 324 314 327 331 325 321 322 318 315 314 314 315 313 312 311 318 319 324 326 327 327 325 324 325 326 328 327 327 323 324 325
316 315 315 315 316 316 317 316 316 319 319 320 322 324 320 319 330 327 323 320 320 318 313 316 318 314 314 315 322 321 317 324 325 326 324 327 321 321 326 328 326 326 327 328 329
315 314 314 315 315 316 316 316 317 321 320 322 323 326 315 327 330 323 321 319 320 319 316 318 319 315 317 325 321 317 319 315 324 325 324 325 312 324 329 326 326 326 327 329 333
314 313 313 314 315 315 315 315 319 322 322 323 326 324 312 322 321 325 322 315 318 318 319 316 316 313 321 316 313 315 309 312 318 325 324 323 315 324 329 327 326 327 328 328 332
313 312 312 313 314 314 313 315 322 322 324 325 323 317 315 315 319 322 324 320 316 315 313 314 313 309 310 312 304 307 308 312 313 322 323 320 318 324 326 327 327 328 329 329 330
312 312 312 313 313 312 316 320 317 316 315 311 312 311 312 317 319 319 322 319 317 314 308 311 308 306 308 309 310 314 310 311 314 322 321 318 317 319 326 327 326 328 329 330 330
311 311 312 312 312 312 316 312 306 308 305 314 313 313 315 316 312 316 321 313 311 306 310 307 304 310 308 306 307 311 309 310 314 314 319 317 315 317 321 324 326 327 329 331 334
311 311 312 312 311 313 315 308 311 313 309 310 312 312 312 314 311 314 316 313 309 306 307 304 306 309 307 306 304 307 308 308 310 310 312 313 311 314 319 323 325 328 330 332 334
310 311 311 309 311 311 313 310 313 315 306 307 311 313 312 314 310 318 318 314 310 306 307 306 309 306 306 305 306 304 309 307 305 305 301 312 300 308 312 316 321 326 329 330 333
310 310 310 308 311 310 309 313 315 316 294 308 311 317 314 312 313 313 320 315 309 308 308 304 306 305 304 305 308 305 309 307 306 306 306 307 303 306 315 313 318 323 326 330 331
310 310 309 312 314 312 313 313 317 304 293 307 310 308 307 310 311 313 313 317 316 309 309 307 311 308 308 309 309 309 307 307 307 306 300 304 304 304 308 311 314 319 324 327 331
309 308 308 313 311 314 314 313 302 296 303 304 305 307 308 306 308 309 309 309 306 302 302 306 306 309 310 306 309 308 306 299 297 297 296 305 303 305 311 313 314 316 321 325 330
307 306 309 313 316 316 312 306 296 299 300 306 306 307 304 307 306 307 307 306 310 308 304 301 299 306 310 308 307 307 307 299 293 295 298 305 299 304 313 316 318 320 324 327 328
305 315 316 319 316 316 307 298 299 301 303 302 304 302 305 306 305 306 306 306 309 309 303 302 301 308 308 311 310 307 304 309 304 304 299 302 305 310 314 315 317 319 322 324 328
308 310 314 317 319 312 304 297 300 303 305 305 300 302 301 304 304 306 306 308 307 310 312 307 301 307 308 310 309 309 311 302 304 295 294 300 301 303 310 312 315 318 319 322 331
310 306 314 319 317 309 299 300 301 304 305 302 301 300 302 303 304 305 305 308 310 309 311 309 307 305 308 306 305 306 305 306 307 305 298 296 300 312 311 315 316 317 319 321 328
308 305 313 317 306 308 302 302 300 303 307 304 305 303 301 302 302 303 304 307 311 311 306 310 309 303 305 309 310 309 308 308 302 301 304 302 301 314 314 316 317 318 320 322 330
304 305 313 313 302 304 305 303 304 303 303 303 303 305 306 303 300 303 304 310 309 310 309 311 307 300 302 307 308 306 308 309 309 310 303 299 302 315 316 316 318 319 319 322 330
304 303 307 309 309 303 302 302 302 306 305 307 305 306 305 304 306 303 304 307 310 310 315 315 310 306 299 303 307 305 306 308 308 303 302 303 305 310 314 315 318 320 321 322 325
305 303 303 303 304 304 303 301 300 301 307 308 305 305 304 301 303 303 305 306 308 312 311 315 306 307 307 307 307 306 305 307 305 307 303 305 306 310 314 315 318 320 322 323 323
302 301 306 303 302 300 298 300 300 302 303 303 304 306 306 304 305 303 306 307 307 310 311 315 305 307 304 306 306 303 306 306 307 307 307 307 307 314 316 318 317 319 319 319 320
307 307 302 299 298 299 301 300 300 302 303 304 303 303 303 305 307 309 310 310 310 308 309 311 308 305 300 305 304 300 305 306 307 309 309 305 310 315 315 316 317 318 319 319 321
Wind_Speed
19 19 18 18 17 17 17 16 15 13 10 9 7 6 6 6 9 8 9 2 2 7 6 6 8 8 7 5 5 4 8 8 4 4 11 12 10 9 4 13 8 5 9 19 18
20 19 19 19 18 17 17 16 15 13 10 8 6 5 5 4 9 10 5 4 2 9 9 10 10 9 9 5 5 8 8 4 4 0 7 14 12 11 13 14 12 12 13 20 20
20 19 20 21 20 19 18 17 15 13 10 8 6 5 4 8 7 6 6 7 8 8 6 6 5 9 10 6 6 4 5 4 1 2 5 12 13 7 13 12 14 17 20 21 18
21 21 21 21 21 20 19 17 16 15 11 7 5 5 4 8 0 7 5 10 8 9 7 5 9 11 11 10 6 8 2 4 3 4 8 13 12 8 12 4 12 17 21 20 19
22 22 22 22 22 22 20 19 17 14 10 6 4 5 6 8 6 7 8 11 11 9 8 6 10 10 13 9 6 9 1 1 3 8 6 9 10 7 10 6 9 20 20 20 18
20 22 23 22 22 22 22 20 17 13 6 5 6 6 7 7 4 4 9 14 11 10 5 6 5 5 4 4 9 2 4 5 6 10 11 11 7 5 9 9 15 21 21 18 18
22 23 23 23 23 23 22 20 16 9 3 6 8 6 7 5 3 7 10 13 8 4 4 2 6 9 1 5 3 3 9 9 8 10 6 7 10 10 10 10 16 19 18 18 18
22 22 23 26 24 24 22 20 12 5 4 8 8 5 6 3 4 8 8 7 6 5 3 4 5 6 6 4 5 10 8 13 10 9 5 10 14 10 9 14 14 16 17 18 19
23 23 24 25 26 25 22 19 7 2 4 7 7 6 4 4 6 8 10 8 9 7 4 3 6 3 5 11 8 8 15 19 11 9 7 12 8 12 10 11 12 14 17 17 18
24 24 25 26 27 26 24 8 2 5 6 6 4 6 6 5 4 5 8 7 6 9 7 8 7 9 8 9 12 15 20 19 13 12 12 15 15 6 7 12 12 13 16 17 18
25 25 25 26 28 26 14 6 4 7 6 10 6 7 3 2 4 9 9 10 8 8 12 7 11 13 12 3 13 14 18 14 12 7 13 16 15 16 11 9 13 14 16 17 19
26 26 27 28 28 24 10 5 6 7 11 12 15 14 11 3 5 9 10 14 11 15 9 8 15 12 1 4 5 10 14 15 12 4 9 16 18 16 11 15 15 16 16 18 18
24 25 27 28 28 9 6 7 7 4 8 2 4 5 8 13 9 11 14 14 12 15 12 16 3 3 11 10 10 10 12 10 11 6 10 7 15 17 18 18 16 17 17 18 19
22 23 24 31 8 7 2 4 9 5 7 7 6 6 8 9 10 8 16 11 8 12 11 11 10 8 12 16 12 14 11 8 8 8 12 16 12 13 12 14 17 19 17 19 20
22 22 21 16 10 6 6 9 5 5 6 3 6 5 8 12 9 12 13 11 13 11 7 8 11 16 12 11 14 16 12 14 14 13 13 12 10 16 6 12 16 20 21 21 21
23 21 20 4 5 7 10 10 6 8 4 3 3 5 10 13 8 8 12 11 8 12 11 15 2 10 13 6 10 1 8 13 13 14 16 20 15 15 12 12 12 15 18 20 19
25 25 13 4 5 9 10 6 7 7 3 3 1 2 7 10 15 10 13 18 14 12 13 14 15 13 10 12 8 12 13 10 13 15 16 19 12 13 17 8 11 13 11 13 16
28 25 7 6 7 8 6 7 8 0 5 2 3 8 9 8 11 17 8 15 17 13 8 11 14 18 13 17 13 19 18 15 16 15 16 7 10 13 9 10 7 7 6 6 7
29 3 3 1 5 4 7 9 4 5 2 4 8 9 8 8 6 12 17 14 15 16 13 7 9 1 5 10 11 9 10 11 13 4 10 9 8 8 10 9 9 9 6 7 6
8 5 2 7 1 6 8 12 6 3 4 4 5 1 5 5 8 10 13 9 14 13 16 9 12 8 6 8 5 8 3 8 9 16 17 11 8 7 8 11 11 9 9 9 3
5 6 6 1 5 6 9 9 5 5 4 4 5 7 7 5 5 8 6 6 7 8 12 11 10 10 8 11 13 8 10 8 7 8 12 12 10 7 7 10 9 10 7 7 5
5 5 3 5 6 2 8 3 2 8 3 8 7 12 13 9 8 6 7 4 2 8 8 9 7 11 17 8 6 11 14 11 10 13 11 10 12 2 6 10 10 10 9 8 7
6 4 2 4 6 6 2 8 5 8 9 4 7 7 2 8 6 10 11 3 3 6 4 7 8 9 11 9 8 11 14 15 14 10 15 15 11 9 9 10 11 13 11 11 9
5 4 4 3 2 6 5 9 8 6 10 11 10 7 9 10 10 8 8 7 2 7 5 4 11 13 13 13 3 12 13 14 15 13 15 17 17 14 13 13 15 13 13 12 11
2 3 4 1 4 4 4 4 9 7 4 7 8 12 15 14 15 17 16 17 16 6 6 6 16 17 19 20 13 17 17 16 16 17 19 17 19 12 14 13 10 12 10 9 11
5 5 1 4 6 7 3 7 9 5 7 12 8 11 10 10 11 14 10 9 11 12 9 8 14 16 20 19 19 21 20 20 21 19 21 19 20 18 15 7 9 9 9 11 12
1 1 5 2 3 6 4 4 1 5 6 6 5 11 12 8 12 14 15 15 16 16 15 13 12 16 20 20 21 27 23 22 22 21 19 22 19 16 10 12 13 13 13 13 12
Wind_Direction
351 348 344 342 338 333 329 329 331 328 323 320 309 297 296 301 282 219 238 81 149 135 211 166 208 202 216 217 242 264 242 217 93 186 121 151 142 143 108 140 140 75 121 130 142
350 346 342 340 338 331 327 328 327 323 321 319 299 281 281 299 261 245 122 132 210 160 203 203 194 195 210 206 206 251 256 83 25 351 158 164 147 149 158 153 132 114 120 134 152
348 344 342 338 336 331 329 328 321 318 317 312 297 268 263 270 249 92 135 163 169 202 256 238 241 225 224 212 183 169 280 30 56 250 252 149 143 158 152 175 156 145 147 153 162
345 344 342 336 334 330 328 328 323 318 306 291 283 250 253 242 154 92 126 165 162 229 204 200 223 217 222 205 181 244 269 318 37 144 195 163 144 167 162 136 146 148 157 160 171
342 342 340 334 331 330 331 330 326 314 293 272 236 215 239 223 89 81 134 151 189 202 217 219 242 229 214 204 196 232 182 281 182 168 154 133 175 180 193 154 147 148 163 169 177
339 340 336 332 331 330 331 330 328 310 270 222 196 191 258 244 78 101 161 169 181 203 195 234 309 312 283 229 243 80 204 145 172 148 154 179 167 221 162 161 149 159 170 173 178
341 340 336 331 332 330 330 329 328 343 171 169 180 240 258 355 77 133 166 197 181 203 218 224 307 269 1 185 180 200 184 164 167 170 142 207 196 216 158 165 159 173 176 175 183
343 338 335 330 332 328 328 324 321 19 132 157 187 246 283 99 110 177 184 173 190 193 230 319 284 283 278 116 188 214 234 190 150 183 135 223 191 150 172 189 184 190 182 184 186
340 337 335 330 329 327 324 316 289 245 160 166 216 255 223 135 212 177 193 194 169 178 196 199 257 285 192 223 202 203 203 209 151 210 161 210 240 127 180 193 204 197 192 192 189
340 337 335 330 327 325 320 285 178 183 199 228 263 233 208 187 143 165 185 206 170 156 164 206 219 229 221 233 216 197 236 197 180 186 215 200 246 140 204 213 210 202 199 203 202
341 337 334 330 326 324 320 213 243 177 225 280 297 284 268 246 201 204 176 187 192 214 214 198 239 219 219 275 322 304 225 200 204 132 210 226 226 233 191 227 227 206 203 205 210
340 337 334 330 327 316 279 51 50 332 297 270 250 265 263 331 227 185 187 198 201 212 203 211 229 237 2 247 259 239 221 207 127 152 231 226 235 243 225 238 239 225 209 212 210
337 336 333 329 322 305 6 65 340 281 262 278 204 229 214 202 223 185 196 210 209 219 210 243 228 257 223 216 238 223 233 193 231 158 230 266 254 252 241 243 234 238 233 214 217
334 334 334 329 295 349 103 353 328 221 270 132 175 141 171 196 215 205 204 201 209 227 221 247 223 214 220 229 229 239 214 234 203 220 233 197 258 232 222 220 226 230 226 229 219
330 330 329 331 316 290 12 326 323 226 279 81 112 102 165 205 111 179 192 208 237 210 226 229 207 211 213 220 210 242 227 226 223 226 253 203 247 271 176 229 230 223 224 226 227
326 327 329 211 234 292 314 311 227 234 231 129 126 176 174 204 195 137 190 226 250 235 222 264 117 225 217 224 230 186 216 233 228 238 231 247 227 253 237 213 244 220 223 231 229
323 320 303 287 331 328 312 242 238 252 106 120 109 210 235 200 213 203 190 200 211 215 223 217 223 223 240 227 194 215 199 204 213 223 244 247 241 252 278 284 269 284 293 230 229
324 314 157 280 310 311 254 227 242 279 265 353 290 284 246 201 219 210 212 210 215 228 274 225 216 210 202 232 219 201 214 238 236 237 242 149 236 251 249 287 247 258 263 268 251
312 303 235 91 303 260 239 225 244 243 335 289 283 259 223 219 261 211 218 235 219 211 235 224 239 97 252 229 241 181 226 264 281 256 280 262 187 271 225 237 235 245 265 279 304
314 300 49 339 208 229 231 240 270 273 301 254 266 251 272 204 231 212 202 220 225 219 223 244 266 235 147 199 184 270 115 206 212 253 250 248 234 263 180 218 220 220 236 255 255
266 284 74 340 271 216 240 244 274 242 267 272 273 260 261 283 267 254 256 165 210 187 218 236 236 227 200 211 230 178 224 237 299 291 271 266 260 213 228 227 213 220 232 251 207
298 270 57 297 240 231 242 235 357 268 217 252 269 270 265 274 276 257 250 259 163 163 189 207 239 242 236 248 264 271 260 240 249 232 236 281 280 119 222 221 208 224 226 223 219
313 297 102 277 257 217 206 263 264 266 257 245 252 241 245 253 256 243 258 241 288 250 235 177 213 238 226 201 211 232 225 239 248 271 263 272 262 183 195 235 222 235 236 228 205
286 277 157 209 332 301 298 270 260 269 272 260 263 266 249 252 245 266 253 260 294 278 35 250 244 243 256 262 329 205 226 225 232 253 261 249 252 251 207 226 235 233 243 252 224
272 64 1 322 125 323 271 297 279 276 257 274 258 247 258 262 255 251 254 265 272 237 247 243 242 240 252 261 266 264 260 241 230 248 256 270 274 272 260 275 237 246 247 242 238
310 325 240 286 291 274 222 263 281 314 281 273 275 331 313 275 273 291 301 278 270 286 263 228 255 255 255 251 250 251 250 254 260 250 260 263 260 272 270 254 237 229 230 243 256
98 180 281 115 256 264 255 283 336 328 267 295 355 316 282 314 337 308 292 281 277 285 287 269 262 245 250 250 260 255 252 252 256 251 252 258 258 261 220 239 255 259 259 263 266